Change the Weather History Date:

Wednesday, September 19, 2012

  Actual Average Record
Temperature  
Mean Temperature 82 °F -  
Max Temperature 89 °F 86 °F 91 °F (1997)
Min Temperature 75 °F 74 °F 55 °F (2002)
Cooling Degree Days 17    
Growing Degree Days 32 (Base 50)    
Moisture  
Dew Point 76 °F    
Average Humidity 83    
Maximum Humidity 94    
Minimum Humidity 70    
Precipitation  
Precipitation 0.00 in - - ()
Sea Level Pressure  
Sea Level Pressure 29.84 in    
Wind  
Wind Speed 6 mph ()    
Max Wind Speed 12 mph    
Max Gust Speed -    
Visibility 8.1 miles    
Events      
Averages and records for this station are not official NWS values.
T = Trace of Precipitation, MM = Missing Value Source: Averaged Metar Reports

Daily Weather History Graph

Daily Weather History Graph

Search for Another Location

Airport or City:

Trip Planner

Search our weather history database for the weather conditions in past years. The results will help you decide how hot, cold, wet, or windy it might be!

Date:

Astronomy

Sep. 19, 2012 Rise Set
Actual Time 6:53 AM MDT 7:03 PM MDT
Civil Twilight 6:30 AM MDT 7:26 PM MDT
Nautical Twilight 6:04 AM MDT 7:52 PM MDT
Astronomical Twilight 5:37 AM MDT 8:18 PM MDT
Moon 10:31 AM MDT (9/19) 9:52 PM MDT (9/19)
Length of Visible Light 12h 55m
Length of Day
12h 10m
Waxing Crescent, 17% of the Moon is Illuminated
Sep 19
Waxing Crescent
Sep 22
First Quarter
Sep 29
Full
Oct 8
Last Quarter
Oct 15
New

Hourly Weather History & Observations

Time (MDT) Temp. Heat Index Dew Point Humidity Pressure Visibility Wind Dir Wind Speed Gust Speed Precip Events Conditions
12:40 AM 77.0 °F - 73.4 °F 89% 29.82 in 10.0 mi East 6.9 mph - N/A   Clear
1:40 AM 75.2 °F - 71.6 °F 89% 29.82 in 10.0 mi Calm Calm - N/A   Clear
2:51 AM 77.0 °F - 73.4 °F 89% 29.82 in 10.0 mi East 5.8 mph - N/A   Clear
3:50 AM 77.0 °F - 73.4 °F 89% 29.82 in 10.0 mi ENE 5.8 mph - N/A   Clear
4:42 AM 77.0 °F - 73.4 °F 89% 29.82 in 8.0 mi East 5.8 mph - N/A   Mostly Cloudy
5:47 AM 77.0 °F - 73.4 °F 89% 29.83 in 8.0 mi NNE 5.8 mph - N/A   Mostly Cloudy
6:48 AM 78.8 °F - 75.2 °F 89% 29.85 in 8.0 mi East 5.8 mph - N/A   Overcast
7:42 AM 78.8 °F - 77.0 °F 94% 29.86 in 8.0 mi North 6.9 mph - N/A   Partly Cloudy
8:45 AM 82.4 °F 92.4 °F 78.8 °F 89% 29.88 in 6.0 mi ENE 6.9 mph - N/A   Partly Cloudy
9:42 AM 84.2 °F 96.1 °F 78.8 °F 84% 29.89 in 6.0 mi East 8.1 mph - N/A   Partly Cloudy
10:48 AM 87.8 °F 102.5 °F 78.8 °F 75% 29.89 in 7.0 mi SSE 8.1 mph - N/A   Mostly Cloudy
11:53 AM 87.8 °F 99.7 °F 77.0 °F 70% 29.89 in 6.0 mi SE 5.8 mph - N/A   Scattered Clouds
12:50 PM 89.6 °F 104.7 °F 78.8 °F 70% 29.86 in 7.0 mi South 9.2 mph - N/A   Mostly Cloudy
1:44 PM 89.6 °F 104.7 °F 78.8 °F 70% 29.84 in 6.0 mi SSW 8.1 mph - N/A   Partly Cloudy
2:43 PM 89.6 °F 104.7 °F 78.8 °F 70% 29.83 in 10.0 mi SSW 10.4 mph - N/A   Partly Cloudy
3:40 PM 89.6 °F 104.7 °F 78.8 °F 70% 29.79 in 10.0 mi WSW 10.4 mph - N/A   Clear
4:42 PM 87.8 °F 102.5 °F 78.8 °F 75% 29.78 in 8.0 mi SW 9.2 mph - N/A   Clear
5:46 PM 86.0 °F 96.9 °F 77.0 °F 74% 29.77 in 8.0 mi WSW 11.5 mph - N/A   Clear
6:42 PM 84.2 °F 94.1 °F 77.0 °F 79% 29.80 in 8.0 mi WSW 8.1 mph - N/A   Partly Cloudy
7:42 PM 82.4 °F 90.9 °F 77.0 °F 84% 29.81 in 8.0 mi NW 6.9 mph - N/A   Clear
8:46 PM 80.6 °F 86.2 °F 75.2 °F 84% 29.83 in 8.0 mi NNW 8.1 mph - N/A   Clear
9:44 PM 78.8 °F - 75.2 °F 89% 29.85 in 8.0 mi North 10.4 mph - N/A   Clear
10:41 PM 78.8 °F - 75.2 °F 89% 29.87 in 8.0 mi NE 4.6 mph - N/A   Clear
11:50 PM 78.8 °F - 77.0 °F 94% 29.86 in 8.0 mi ESE 5.8 mph - N/A   Clear